Wind_Speed
9 9 9 9 9 9 8 8 7 6 6 5 5 3 3 2 2 1 1 2 3 3 3 4 4 3 3 3 3 3 4 5 5 5 5 5 5 5 5 5 6 6 7
9 9 10 10 9 8 8 7 7 6 6 5 4 4 3 2 1 1 1 2 2 3 4 4 4 3 3 3 4 4 4 6 6 6 6 5 5 6 6 6 7 7 8
10 9 9 9 9 8 7 7 7 7 7 6 5 4 4 4 3 3 3 3 2 2 3 4 5 5 4 4 5 5 6 7 7 7 6 7 7 8 8 8 9 9 9
11 11 10 10 9 8 8 8 8 8 7 7 6 6 6 5 4 4 5 5 4 5 5 5 6 6 6 6 6 7 8 8 9 8 8 9 9 10 10 10 10 10 10
13 12 11 11 10 10 10 9 9 9 8 8 7 7 7 7 6 6 6 6 6 6 7 7 7 7 7 7 8 8 8 9 10 10 10 10 10 11 11 12 12 12 13
16 15 14 13 12 12 12 12 11 11 10 10 9 9 8 8 8 8 8 8 8 8 8 8 8 9 9 9 9 10 10 11 11 11 12 12 13 13 14 13 14 14 15
18 18 16 15 14 14 14 13 12 12 11 11 10 10 10 10 10 10 10 10 10 10 10 10 10 10 11 11 12 12 12 13 13 14 14 14 15 15 15 15 16 17 17
19 19 18 16 15 15 14 14 14 13 12 12 12 11 11 11 11 11 12 12 12 12 12 12 12 12 13 14 14 14 14 14 15 15 16 17 17 18 18 18 18 18 19
19 21 20 18 17 16 16 15 15 15 14 14 13 13 13 12 12 12 12 13 13 13 13 14 14 14 15 16 16 16 16 16 17 18 18 19 20 20 20 20 19 19 19
20 21 21 19 19 18 17 17 17 16 16 15 15 15 15 15 15 14 14 14 15 16 16 16 17 17 17 17 18 17 18 19 19 20 21 21 21 21 21 21 20 20 21
21 22 22 21 20 20 19 18 18 18 18 18 18 18 17 17 17 17 17 17 17 18 19 19 19 19 19 19 20 19 19 20 21 22 23 23 23 23 23 23 23 23 22
23 22 23 24 22 22 21 21 20 20 20 20 20 20 19 19 19 19 19 19 19 20 20 20 20 21 21 22 22 21 22 23 24 24 25 25 25 25 24 25 24 24 24
26 25 25 25 24 24 24 23 23 22 22 22 22 21 21 21 21 21 21 21 21 22 21 21 22 23 23 23 24 25 25 25 26 26 27 27 27 26 26 26 26 25 25
28 28 28 26 26 26 26 26 25 25 24 24 24 23 23 23 23 23 23 23 23 23 23 24 24 25 25 25 26 27 27 27 28 28 29 29 28 28 29 27 27 27 28
29 29 29 29 29 29 28 28 28 28 27 27 27 26 26 26 26 25 25 25 26 26 26 26 26 27 28 28 28 29 29 30 30 30 31 31 30 30 29 29 29 30 31
31 31 30 30 30 31 31 30 30 30 30 29 29 29 28 28 28 28 27 27 28 28 28 28 28 29 30 30 31 32 32 32 32 32 33 33 33 32 32 32 32 32 32
32 32 32 31 31 32 33 32 32 32 32 32 32 31 30 30 29 29 30 30 30 29 30 30 30 31 31 31 32 33 33 33 33 34 35 35 35 34 34 34 35 35 35
34 33 33 33 33 34 34 34 34 35 34 34 34 34 33 32 32 32 31 31 32 31 31 31 31 31 31 32 32 33 34 35 36 36 36 37 37 36 35 36 36 37 37
34 34 34 35 35 36 36 37 37 36 36 36 36 35 34 34 34 33 33 34 33 33 33 33 33 33 33 34 34 35 35 35 36 37 37 37 37 37 36 37 37 38 38
35 35 35 35 36 36 37 38 38 38 37 37 36 35 34 35 35 34 35 35 35 35 35 35 36 36 35 35 35 35 36 36 36 36 36 36 36 36 37 37 36 37 37
35 35 35 35 36 37 38 38 38 38 38 37 36 36 36 36 36 36 36 36 37 37 37 37 37 37 36 35 35 36 37 37 36 36 35 36 36 36 36 36 37 37 38
35 36 36 36 37 37 38 38 38 38 38 38 38 38 38 38 38 38 38 38 38 38 38 38 38 37 36 36 37 37 37 37 37 37 36 36 36 37 37 37 38 38 39
37 37 37 38 38 38 39 39 38 38 38 39 39 40 40 40 40 40 39 39 39 40 40 39 39 39 38 38 38 39 38 38 38 37 36 36 36 37 37 38 39 39 40
37 38 38 38 38 39 39 40 40 40 39 40 41 41 41 41 41 41 41 41 41 41 41 40 40 40 40 39 39 38 37 37 37 37 37 37 38 38 38 39 39 39 40
36 37 37 38 38 38 38 39 39 39 39 39 40 41 41 42 41 41 41 41 41 41 41 40 39 39 39 38 38 37 37 38 37 37 38 39 39 39 39 39 39 39 38
36 37 37 37 37 38 37 37 37 38 38 38 39 39 38 39 40 40 40 39 39 40 40 39 40 40 39 39 39 38 39 39 38 38 38 38 38 38 38 38 38 38 39
Wind_Direction
353 354 358 1 2 2 5 9 12 13 14 18 26 31 42 63 93 104 176 208 210 221 233 234 238 239 230 231 230 243 259 266 273 275 271 267 269 276 275 278 282 290 296
336 342 347 347 348 350 355 360 1 359 357 346 350 6 8 354 315 299 293 262 253 250 246 244 247 247 251 256 253 261 272 276 278 276 273 275 273 273 275 282 290 291 296
321 330 335 335 335 340 346 348 345 342 343 336 327 324 324 323 306 289 299 288 271 272 276 266 257 262 270 270 265 267 277 280 275 274 273 275 276 278 278 285 292 296 296
307 312 316 321 325 326 326 328 334 334 331 331 317 304 300 297 296 300 307 306 300 287 286 274 266 268 270 272 276 276 277 277 271 274 275 277 277 280 285 286 288 293 296
300 304 305 307 312 313 314 315 316 319 317 312 309 303 293 288 289 293 294 294 296 293 287 285 276 271 272 273 275 278 281 282 278 276 278 282 281 282 283 285 288 292 294
291 293 294 296 300 303 307 310 308 308 306 307 304 301 299 291 289 288 286 286 284 287 284 280 277 270 271 273 275 278 278 279 280 279 280 282 284 285 287 284 286 287 289
284 286 286 287 292 296 300 304 306 305 301 300 299 298 294 290 286 285 281 281 281 283 286 283 277 273 274 274 273 276 276 277 278 280 281 282 286 287 287 285 285 286 286
280 283 282 280 283 288 293 294 299 301 300 297 293 293 293 292 288 284 281 281 281 282 282 281 278 276 276 274 275 275 276 277 278 279 282 284 286 287 287 286 285 285 284
274 277 278 277 278 281 284 286 290 294 294 293 291 288 289 288 287 285 284 283 279 280 279 277 276 277 276 274 276 276 277 278 279 281 282 284 285 287 288 286 286 287 286
274 275 277 274 273 275 278 282 282 286 288 287 286 286 285 284 283 283 285 284 281 279 278 277 278 279 277 276 276 276 275 276 278 281 283 284 285 286 286 285 285 285 286
272 272 273 273 273 273 275 277 279 281 282 281 281 281 282 283 283 285 284 282 281 281 278 277 280 278 276 277 278 279 278 277 279 281 282 284 286 287 285 285 283 283 284
272 272 271 271 270 271 271 273 275 279 279 278 279 278 280 282 283 283 283 282 281 282 283 281 281 279 277 277 277 279 281 282 282 282 283 285 285 286 286 286 283 282 284
269 269 268 269 270 271 270 272 274 277 278 277 276 276 277 279 280 280 280 280 280 280 281 283 281 278 278 278 278 279 282 283 282 283 284 286 285 283 283 285 284 283 282
269 269 269 268 269 270 270 271 272 274 276 276 276 276 276 277 278 277 279 281 280 279 279 280 282 281 279 280 279 280 282 282 283 284 284 285 284 283 284 284 283 283 282
270 269 267 266 268 269 269 270 270 272 273 274 273 273 274 275 276 277 279 280 281 280 280 280 281 282 281 281 281 281 282 282 283 283 282 283 286 287 287 285 284 283 282
269 269 268 267 266 267 267 268 270 270 271 271 272 272 273 274 274 275 276 277 278 280 281 281 282 283 282 282 281 282 281 281 281 281 282 284 286 288 287 286 284 283 282
267 267 267 266 265 265 265 266 270 269 268 269 270 272 271 271 272 273 275 277 279 280 281 282 282 283 284 283 283 283 282 282 282 283 284 284 284 285 286 286 284 284 282
268 268 268 267 265 265 266 266 268 268 267 268 269 271 272 272 271 272 275 276 277 278 280 279 280 281 281 282 283 283 283 282 283 283 284 284 284 284 285 284 283 283 284
268 268 268 267 266 265 266 266 267 266 267 267 267 269 272 271 270 272 274 275 276 277 279 281 281 279 280 282 283 283 284 284 285 284 283 283 283 285 284 284 283 283 285
269 269 269 269 268 267 266 265 267 268 267 266 267 268 270 270 270 271 272 274 275 277 278 279 281 280 282 283 283 283 284 284 285 284 283 283 283 282 283 283 283 283 284
269 270 271 270 269 268 267 267 267 268 266 267 268 268 269 269 269 269 271 272 274 276 278 280 281 282 283 284 284 285 285 285 284 283 283 284 283 283 283 283 284 284 284
268 269 270 271 271 269 268 267 267 268 267 267 268 268 268 268 268 268 269 271 273 275 277 278 280 281 282 283 285 285 285 284 283 283 283 284 284 284 285 285 285 285 284
267 268 270 271 270 269 267 267 267 267 266 266 267 267 266 266 267 268 269 271 272 274 276 277 279 280 281 282 283 283 284 284 283 283 284 285 285 285 284 284 285 285 285
269 269 269 270 271 270 269 267 267 266 266 265 265 267 267 266 267 268 269 270 272 274 276 277 278 280 281 281 281 281 281 282 282 283 283 284 285 285 285 285 285 285 285
269 269 270 271 271 271 269 267 266 266 265 265 265 266 268 268 268 269 270 271 271 273 275 276 277 279 280 280 280 280 280 281 282 283 283 284 284 285 285 285 285 286 286
269 270 270 270 271 271 269 266 266 266 265 265 266 266 268 268 270 271 272 272 272 272 273 275 276 277 278 279 280 280 281 280 281 282 284 284 285 285 285 285 285 285 285
Height
5896 5894 5893 5892 5891 5890 5889 5889 5888 5888 5888 5887 5887 5887 5887 5887 5888 5888 5889 5890 5891 5892 5893 5894 5894 5895 5895 5896 5897 5898 5899 5899 5900 5901 5901 5901 5901 5902 5902 5902 5902 5902 5902
5896 5894 5893 5892 5891 5891 5890 5889 5889 5889 5888 5888 5888 5887 5888 5888 5889 5889 5890 5890 5891 5891 5892 5893 5894 5894 5895 5896 5897 5897 5898 5899 5899 5899 5899 5900 5900 5900 5900 5900 5900 5900 5900
5896 5895 5894 5893 5892 5891 5890 5890 5889 5889 5889 5888 5888 5888 5888 5888 5889 5889 5890 5890 5891 5891 5892 5893 5893 5894 5894 5895 5896 5896 5897 5897 5897 5897 5898 5898 5899 5899 5899 5899 5898 5898 5898
5895 5894 5893 5892 5891 5891 5890 5890 5889 5889 5889 5888 5888 5888 5888 5888 5889 5889 5889 5890 5890 5890 5891 5892 5892 5892 5893 5894 5894 5895 5895 5896 5896 5896 5896 5897 5897 5897 5897 5897 5896 5896 5896
5893 5893 5892 5891 5891 5890 5890 5889 5889 5889 5888 5888 5888 5888 5888 5888 5888 5888 5889 5889 5889 5889 5890 5890 5890 5891 5892 5892 5893 5893 5893 5893 5894 5894 5894 5894 5894 5894 5894 5894 5893 5893 5893
5891 5890 5890 5890 5889 5889 5889 5888 5888 5888 5887 5887 5887 5887 5886 5886 5887 5887 5887 5888 5888 5888 5888 5888 5888 5889 5890 5890 5891 5891 5891 5891 5891 5891 5891 5891 5891 5891 5891 5891 5890 5890 5889
5888 5888 5888 5888 5888 5887 5887 5887 5886 5886 5886 5886 5885 5885 5885 5885 5885 5885 5886 5886 5886 5886 5886 5886 5886 5887 5887 5888 5888 5888 5888 5888 5888 5888 5888 5888 5888 5887 5887 5887 5887 5886 5886
5885 5885 5885 5885 5885 5885 5885 5884 5884 5884 5884 5884 5884 5883 5883 5883 5883 5883 5883 5883 5884 5884 5884 5884 5884 5884 5884 5884 5885 5884 5884 5885 5885 5885 5885 5884 5884 5883 5883 5883 5882 5882 5882
5882 5881 5881 5882 5882 5882 5882 5882 5882 5881 5881 5881 5881 5881 5881 5881 5881 5881 5881 5881 5881 5881 5881 5881 5881 5881 5881 5881 5881 5881 5881 5881 5881 5880 5880 5880 5879 5879 5879 5878 5878 5878 5877
5878 5877 5877 5877 5878 5878 5879 5879 5878 5878 5878 5878 5878 5878 5878 5878 5878 5878 5878 5877 5877 5877 5877 5877 5877 5877 5876 5876 5876 5876 5876 5876 5876 5876 5876 5875 5875 5874 5874 5873 5872 5872 5872
5873 5873 5873 5873 5873 5874 5874 5875 5875 5874 5874 5874 5874 5874 5874 5874 5874 5874 5874 5873 5873 5873 5873 5873 5873 5872 5872 5872 5872 5872 5872 5871 5871 5871 5871 5870 5869 5869 5868 5867 5867 5866 5866
5867 5867 5868 5868 5869 5869 5870 5870 5870 5870 5870 5870 5870 5870 5870 5870 5870 5870 5869 5869 5869 5868 5868 5868 5868 5868 5867 5867 5867 5866 5866 5866 5866 5865 5865 5864 5863 5863 5862 5861 5860 5860 5860
5862 5862 5863 5863 5863 5864 5864 5865 5865 5865 5865 5864 5864 5864 5865 5865 5865 5864 5864 5864 5863 5863 5863 5863 5862 5862 5862 5862 5861 5861 5861 5860 5860 5859 5859 5858 5857 5856 5855 5855 5854 5853 5853
5856 5856 5857 5857 5858 5858 5858 5859 5859 5859 5859 5859 5858 5859 5859 5859 5859 5858 5858 5858 5857 5857 5857 5857 5856 5856 5856 5855 5855 5855 5854 5854 5853 5853 5852 5851 5850 5849 5848 5848 5847 5846 5846
5848 5849 5850 5850 5851 5851 5852 5852 5852 5852 5852 5852 5852 5853 5852 5852 5852 5852 5851 5851 5851 5850 5850 5850 5850 5849 5849 5849 5848 5848 5847 5847 5846 5845 5845 5843 5842 5842 5841 5840 5840 5839 5838
5841 5841 5842 5843 5843 5844 5844 5845 5845 5845 5845 5845 5845 5845 5845 5845 5845 5845 5844 5844 5844 5844 5843 5843 5843 5842 5842 5841 5841 5840 5839 5838 5838 5837 5836 5835 5834 5834 5833 5832 5831 5830 5829
5832 5832 5834 5835 5835 5835 5836 5836 5836 5836 5836 5836 5837 5837 5837 5837 5837 5837 5837 5836 5836 5836 5836 5836 5835 5834 5834 5833 5832 5831 5830 5830 5829 5828 5827 5826 5826 5825 5824 5823 5822 5821 5820
5823 5824 5825 5826 5826 5827 5827 5827 5827 5826 5827 5828 5828 5828 5829 5829 5829 5829 5829 5829 5828 5828 5828 5827 5827 5826 5825 5824 5823 5823 5822 5821 5820 5819 5818 5817 5816 5815 5814 5813 5812 5811 5810
5814 5815 5815 5816 5817 5817 5818 5818 5817 5817 5817 5818 5819 5819 5820 5820 5820 5820 5821 5820 5820 5819 5819 5818 5818 5817 5816 5816 5815 5814 5812 5812 5811 5809 5808 5807 5807 5806 5804 5803 5802 5801 5799
5804 5805 5806 5806 5807 5807 5807 5807 5807 5807 5808 5808 5809 5809 5810 5811 5811 5811 5811 5811 5811 5810 5810 5809 5809 5808 5807 5807 5806 5804 5803 5802 5801 5800 5799 5798 5797 5796 5794 5793 5792 5790 5789
5795 5795 5796 5796 5797 5796 5796 5797 5797 5798 5798 5799 5799 5799 5800 5801 5801 5801 5801 5801 5801 5801 5800 5799 5799 5798 5798 5797 5796 5795 5793 5792 5791 5790 5790 5788 5787 5785 5784 5783 5781 5780 5779
5786 5786 5786 5786 5786 5786 5786 5786 5787 5787 5787 5788 5789 5789 5789 5789 5790 5791 5791 5791 5791 5791 5790 5789 5789 5788 5788 5787 5786 5785 5784 5783 5782 5781 5779 5778 5777 5776 5774 5772 5770 5769 5767
5775 5776 5776 5776 5776 5775 5775 5775 5775 5776 5776 5777 5778 5778 5778 5778 5779 5779 5780 5780 5780 5780 5780 5779 5779 5779 5778 5777 5776 5775 5774 5773 5772 5770 5769 5768 5767 5765 5764 5762 5759 5758 5756
5765 5765 5765 5765 5765 5764 5763 5763 5763 5764 5765 5765 5766 5766 5766 5767 5767 5768 5768 5769 5769 5769 5769 5768 5768 5768 5767 5766 5766 5764 5763 5762 5761 5760 5759 5757 5756 5754 5753 5751 5749 5746 5744
5754 5754 5753 5753 5753 5753 5752 5751 5751 5752 5753 5754 5754 5755 5755 5756 5755 5756 5756 5757 5757 5758 5758 5758 5757 5757 5756 5756 5755 5754 5753 5752 5751 5749 5748 5747 5745 5743 5741 5739 5737 5735 5733
5743 5743 5742 5742 5742 5741 5741 5740 5740 5741 5741 5742 5743 5744 5744 5745 5745 5745 5745 5746 5746 5746 5746 5746 5746 5746 5745 5744 5744 5743 5741 5740 5739 5738 5736 5735 5733 5732 5730 5728 5726 5724 5722